Gunnison, CO

11:38 AM MST on February 23, 2017 (GMT -0700)
Gunnison County

Weather History for KGUC - April, 2014

Change the Weather History Date:

Sunday, April 13, 2014

  Actual Average Record
Temperature  
Mean Temperature 34 °F -  
Max Temperature 42 °F 50 °F 68 °F (2006)
Min Temperature 24 °F 22 °F 10 °F (1997)
Degree Days  
Heating Degree Days 31    
Moisture  
Dew Point 28 °F    
Average Humidity 74    
Maximum Humidity 87    
Minimum Humidity 49    
Precipitation  
Precipitation 0.04 in - - ()
Sea Level Pressure  
Sea Level Pressure 29.83 in    
Wind  
Wind Speed 6 mph (SW)    
Max Wind Speed 24 mph    
Max Gust Speed 32 mph    
Visibility 10 miles    
Events Thunderstorm    
Averages and records for this station are not official NWS values.
T = Trace of Precipitation, MM = Missing Value Source: NWS Daily Summary

Daily Weather History Graph

Daily Weather History Graph

Search for Another Location

Airport or City:

Trip Planner

Search our weather history database for the weather conditions in past years. The results will help you decide how hot, cold, wet, or windy it might be!

Date:

Astronomy

Apr. 13, 2014 Rise Set
Actual Time 6:34 AM MDT 7:42 PM MDT
Civil Twilight 6:07 AM MDT 8:09 PM MDT
Nautical Twilight 5:34 AM MDT 8:42 PM MDT
Astronomical Twilight 5:00 AM MDT 9:16 PM MDT
Moon 6:24 PM MDT (4/13) 5:33 AM MDT (4/13)
Length of Visible Light 14h 02m
Length of Day
13h 08m
Waxing Gibbous, 97% of the Moon is Illuminated
Apr 13
Waxing Gibbous
Apr 15
Full
Apr 22
Last Quarter
Apr 29
New
May 6
First Quarter

Hourly Weather History & Observations

Time (MDT) Temp. Windchill Dew Point Humidity Pressure Visibility Wind Dir Wind Speed Gust Speed Precip Events Conditions
12:15 AM 35.6 °F - 30.2 °F 81% 29.88 in 10.0 mi Calm Calm - N/A   Clear
12:35 AM 33.8 °F 30.8 °F 28.4 °F 81% 29.88 in 10.0 mi SSW 3.5 mph - N/A   Clear
12:55 AM 33.8 °F - 28.4 °F 81% 29.88 in 10.0 mi Calm Calm - N/A   Partly Cloudy
1:15 AM 33.8 °F - 28.4 °F 81% 29.88 in 10.0 mi Calm Calm - N/A   Mostly Cloudy
1:35 AM 33.8 °F - 28.4 °F 81% 29.87 in 10.0 mi Calm Calm - N/A   Scattered Clouds
1:55 AM 33.8 °F - 28.4 °F 81% 29.87 in 10.0 mi Calm Calm - N/A   Clear
2:15 AM 33.8 °F - 28.4 °F 81% 29.87 in 10.0 mi Calm Calm - N/A   Partly Cloudy
2:35 AM 33.8 °F - 28.4 °F 81% 29.86 in 10.0 mi Calm Calm - N/A   Scattered Clouds
2:55 AM 35.6 °F 32.8 °F 30.2 °F 81% 29.86 in 10.0 mi NE 3.5 mph - N/A   Mostly Cloudy
3:15 AM 33.8 °F 29.6 °F 30.2 °F 87% 29.84 in 10.0 mi NE 4.6 mph - N/A   Partly Cloudy
3:35 AM 33.8 °F - 28.4 °F 81% 29.84 in 10.0 mi Calm Calm - N/A   Scattered Clouds
3:55 AM 33.8 °F - 28.4 °F 81% 29.84 in 10.0 mi Calm Calm - N/A   Scattered Clouds
4:15 AM 33.8 °F - 28.4 °F 81% 29.85 in 10.0 mi Calm Calm - N/A   Mostly Cloudy
4:35 AM 33.8 °F 30.8 °F 28.4 °F 81% 29.85 in 10.0 mi South 3.5 mph - N/A   Mostly Cloudy
4:55 AM 33.8 °F 29.6 °F 30.2 °F 87% 29.84 in 10.0 mi SE 4.6 mph - N/A   Mostly Cloudy
5:15 AM 33.8 °F 27.7 °F 30.2 °F 87% 29.83 in 10.0 mi NE 6.9 mph - N/A   Mostly Cloudy
5:35 AM 33.8 °F 30.8 °F 30.2 °F 87% 29.82 in 10.0 mi ENE 3.5 mph - N/A   Overcast
5:55 AM 35.6 °F - 30.2 °F 81% 29.81 in 10.0 mi Calm Calm - N/A   Overcast
6:15 AM 35.6 °F - 30.2 °F 81% 29.81 in 10.0 mi Calm Calm - N/A   Overcast
6:35 AM 33.8 °F - 30.2 °F 87% 29.81 in 10.0 mi Calm Calm - N/A   Mostly Cloudy
6:55 AM 33.8 °F - 30.2 °F 87% 29.81 in 10.0 mi Calm Calm - N/A   Partly Cloudy
7:15 AM 35.6 °F - 30.2 °F 81% 29.81 in 10.0 mi Calm Calm - N/A   Mostly Cloudy
7:35 AM 35.6 °F - 32.0 °F 87% 29.81 in 10.0 mi Calm Calm - N/A   Overcast
7:55 AM 35.6 °F - 32.0 °F 87% 29.80 in 10.0 mi Calm Calm - N/A   Overcast
8:15 AM 35.6 °F - 32.0 °F 87% 29.81 in 10.0 mi Calm Calm - N/A   Overcast
8:35 AM 37.4 °F - 33.8 °F 87% 29.80 in 10.0 mi Calm Calm - N/A   Overcast
8:55 AM 37.4 °F 32.8 °F 32.0 °F 81% 29.80 in 10.0 mi SW 5.8 mph - N/A   Overcast
9:35 AM 37.4 °F 34.9 °F 33.8 °F 87% 29.79 in 10.0 mi WNW 3.5 mph - 0.02 in   Mostly Cloudy
9:55 AM 39.2 °F 35.0 °F 33.8 °F 81% 29.78 in 10.0 mi SSE 5.8 mph - 0.02 in   Mostly Cloudy
10:15 AM 41.0 °F 36.4 °F 35.6 °F 81% 29.78 in 10.0 mi SW 6.9 mph - N/A   Mostly Cloudy
10:35 AM 39.2 °F 32.5 °F 33.8 °F 81% 29.79 in 10.0 mi SSW 10.4 mph - N/A   Mostly Cloudy
10:55 AM 39.2 °F 33.0 °F 32.0 °F 75% 29.79 in 10.0 mi SW 9.2 mph - N/A   Mostly Cloudy
11:15 AM 39.2 °F 33.0 °F 33.8 °F 81% 29.78 in 10.0 mi SW 9.2 mph - N/A   Mostly Cloudy
11:35 AM 41.0 °F 35.2 °F 33.8 °F 76% 29.77 in 10.0 mi SSW 9.2 mph - N/A   Overcast
11:55 AM 42.8 °F 38.6 °F 33.8 °F 70% 29.75 in 10.0 mi WSW 6.9 mph - N/A   Overcast
12:15 PM 42.8 °F - 33.8 °F 70% 29.72 in 10.0 mi Calm Calm - N/A Thunderstorm Mostly Cloudy
12:35 PM 37.4 °F 26.4 °F 28.4 °F 70% 29.77 in 4.0 mi WSW 23.0 mph 32.2 mph 0.01 in Thunderstorm Overcast
12:55 PM 37.4 °F 27.8 °F 30.2 °F 75% 29.80 in 9.0 mi West 17.3 mph 26.5 mph 0.01 in Thunderstorm Mostly Cloudy
1:15 PM 37.4 °F 32.8 °F 30.2 °F 75% 29.78 in 10.0 mi SW 5.8 mph - N/A   Partly Cloudy
1:35 PM 39.2 °F 35.9 °F 30.2 °F 70% 29.78 in 10.0 mi WSW 4.6 mph - N/A   Scattered Clouds
1:55 PM 42.8 °F 35.8 °F 30.2 °F 61% 29.77 in 10.0 mi SW 13.8 mph - N/A   Mostly Cloudy
2:15 PM 42.8 °F 34.8 °F 30.2 °F 61% 29.77 in 10.0 mi SW 17.3 mph 21.9 mph N/A   Mostly Cloudy
2:35 PM 42.8 °F 34.8 °F 30.2 °F 61% 29.76 in 10.0 mi SSW 17.3 mph 21.9 mph N/A   Clear
2:55 PM 42.8 °F 33.3 °F 30.2 °F 61% 29.77 in 10.0 mi WSW 24.2 mph 29.9 mph N/A   Clear
3:15 PM 39.2 °F 29.0 °F 28.4 °F 65% 29.77 in 10.0 mi SW 21.9 mph 29.9 mph N/A   Scattered Clouds
3:35 PM 37.4 °F 28.9 °F 28.4 °F 70% 29.78 in 5.0 mi WSW 13.8 mph 20.7 mph 0.01 in   Overcast
3:55 PM 39.2 °F 31.2 °F 30.2 °F 70% 29.77 in 10.0 mi SW 13.8 mph 18.4 mph 0.01 in   Mostly Cloudy
4:15 PM 39.2 °F 31.2 °F 28.4 °F 65% 29.77 in 10.0 mi SW 13.8 mph 25.3 mph N/A   Mostly Cloudy
4:35 PM 39.2 °F 30.2 °F 28.4 °F 65% 29.78 in 10.0 mi SW 17.3 mph 24.2 mph N/A   Scattered Clouds
4:55 PM 41.0 °F 31.6 °F 28.4 °F 61% 29.78 in 10.0 mi WSW 20.7 mph 29.9 mph N/A   Partly Cloudy
5:15 PM 42.8 °F 35.1 °F 24.8 °F 49% 29.77 in 10.0 mi WSW 16.1 mph 23.0 mph N/A   Clear
5:35 PM 39.2 °F 29.3 °F 26.6 °F 61% 29.78 in 10.0 mi WSW 20.7 mph 27.6 mph N/A   Clear
5:55 PM 37.4 °F 27.5 °F 23.0 °F 56% 29.80 in 10.0 mi WSW 18.4 mph 27.6 mph N/A   Partly Cloudy
6:15 PM 37.4 °F 27.2 °F 21.2 °F 52% 29.80 in 10.0 mi WSW 19.6 mph 27.6 mph N/A   Scattered Clouds
6:35 PM 37.4 °F 27.8 °F 21.2 °F 52% 29.80 in 10.0 mi WSW 17.3 mph 26.5 mph N/A   Partly Cloudy
6:55 PM 35.6 °F 26.2 °F 21.2 °F 56% 29.80 in 10.0 mi WSW 15.0 mph 21.9 mph N/A   Clear
7:15 PM 35.6 °F 26.6 °F 21.2 °F 56% 29.82 in 10.0 mi WSW 13.8 mph 20.7 mph N/A   Mostly Cloudy
7:35 PM 35.6 °F 24.8 °F 21.2 °F 56% 29.84 in 10.0 mi WSW 19.6 mph 24.2 mph N/A   Overcast
7:55 PM 32.0 °F 27.5 °F 24.8 °F 75% 29.85 in 5.0 mi West 4.6 mph - N/A   Mostly Cloudy
8:15 PM 32.0 °F 28.7 °F 23.0 °F 69% 29.86 in 3.0 mi East 3.5 mph - N/A   Mostly Cloudy
8:35 PM 30.2 °F 22.6 °F 24.8 °F 80% 29.88 in 10.0 mi SSW 8.1 mph - N/A   Mostly Cloudy
8:55 PM 30.2 °F - 24.8 °F 80% 29.89 in 10.0 mi Calm Calm - N/A   Overcast
9:15 PM 30.2 °F 24.3 °F 23.0 °F 75% 29.91 in 10.0 mi SW 5.8 mph - N/A   Overcast
9:35 PM 30.2 °F 19.3 °F 24.8 °F 80% 29.92 in 10.0 mi WSW 15.0 mph - N/A   Overcast
9:55 PM 30.2 °F 18.1 °F 21.2 °F 69% 29.93 in 10.0 mi WSW 18.4 mph 24.2 mph N/A   Overcast
10:15 PM 28.4 °F 16.6 °F 19.4 °F 69% 29.94 in 10.0 mi WSW 16.1 mph 24.2 mph N/A   Overcast
10:35 PM 28.4 °F 18.0 °F 19.4 °F 69% 29.95 in 10.0 mi WSW 12.7 mph 21.9 mph N/A   Mostly Cloudy
10:55 PM 26.6 °F 14.3 °F 19.4 °F 74% 29.96 in 10.0 mi WSW 16.1 mph 23.0 mph N/A   Mostly Cloudy
11:15 PM 26.6 °F 13.8 °F 17.6 °F 69% 29.97 in 10.0 mi WSW 17.3 mph 24.2 mph N/A   Mostly Cloudy
11:35 PM 26.6 °F 16.2 °F 19.4 °F 74% 29.98 in 10.0 mi West 11.5 mph 20.7 mph N/A   Mostly Cloudy
11:55 PM 24.8 °F 14.6 °F 17.6 °F 74% 29.99 in 10.0 mi WSW 10.4 mph - N/A   Scattered Clouds